Probability
33 36 40 37 31 29 30 34 36 36 34 26 17 12 11 9 7 7 9 14 13 7 4 2 1 2 2 2 3 3 4 3 2 0 0 0 0 0 0 0 0 0 0
28 30 34 33 29 26 28 31 33 34 34 28 18 14 13 13 11 10 11 12 11 7 5 4 4 4 4 3 3 4 5 5 4 2 1 0 0 0 0 0 0 0 0
18 19 22 23 23 22 23 25 24 25 28 26 22 19 19 18 16 14 13 14 12 9 8 7 8 11 9 6 5 7 9 10 9 6 3 0 0 0 0 0 0 0 0
9 10 13 15 16 16 17 17 17 18 20 22 22 22 22 21 18 15 13 16 18 17 15 14 15 19 19 15 13 15 17 17 15 12 7 2 1 0 0 0 0 0 0
5 7 9 11 11 13 13 13 14 16 18 18 16 16 18 18 17 15 13 15 21 25 24 22 22 25 27 29 28 28 26 25 24 20 13 7 3 1 0 0 0 0 0
6 6 7 8 9 11 11 10 11 14 16 15 11 9 10 11 14 15 13 14 19 24 25 25 28 30 32 37 42 42 38 34 33 29 22 14 8 4 1 0 0 0 0
5 4 4 5 8 9 8 8 10 10 11 13 11 7 4 6 10 12 12 14 16 19 23 26 31 37 40 41 44 47 47 44 40 36 32 24 16 9 4 1 0 0 0
3 2 2 2 4 5 4 4 7 7 8 10 10 6 3 5 7 8 10 13 16 20 25 28 32 38 44 50 46 45 50 54 50 43 38 33 25 17 10 4 1 0 0
1 1 1 1 1 2 2 3 4 4 5 7 7 5 3 4 6 7 8 11 15 20 23 25 27 31 40 52 51 42 46 56 57 51 45 40 33 26 17 9 4 1 0
3 3 2 2 2 2 3 4 3 3 3 4 6 5 2 3 5 5 6 8 11 14 17 19 22 25 33 47 51 39 34 41 48 52 52 47 39 33 25 16 10 5 2
4 4 4 5 5 5 6 6 4 3 2 2 4 4 1 1 2 2 3 5 7 8 9 14 19 24 29 39 41 29 20 22 28 38 46 48 44 38 31 24 17 10 5
4 4 4 6 7 6 6 6 5 5 4 4 3 3 1 0 1 1 1 3 5 5 6 10 15 21 26 31 29 20 13 11 12 20 31 41 45 42 36 32 27 19 13
4 5 6 7 7 6 6 6 6 6 5 5 4 4 2 1 1 1 0 1 2 2 4 7 11 16 21 27 24 15 10 8 5 7 16 26 34 37 37 37 35 30 24
5 6 7 7 6 6 6 6 6 5 5 4 4 4 3 2 2 2 1 0 0 1 3 6 10 14 20 25 20 13 11 8 2 2 5 10 17 24 27 29 31 30 28
3 4 4 4 4 5 6 6 5 4 4 4 4 4 3 3 2 2 1 0 0 2 3 6 10 14 19 19 13 13 14 8 2 1 0 2 5 9 11 12 14 17 17
1 1 1 1 2 3 4 4 2 2 2 3 3 3 4 4 4 3 1 0 0 1 3 6 9 12 15 13 13 17 17 11 4 1 0 0 1 1 2 2 2 4 4
0 0 0 0 1 1 1 1 0 0 1 1 1 2 3 3 4 3 2 1 1 2 4 7 9 10 12 13 16 19 18 16 10 3 0 0 0 0 0 0 0 0 0
0 0 0 0 0 0 0 0 0 0 0 0 0 1 1 1 2 3 3 3 3 3 4 6 9 10 11 13 16 17 16 17 13 4 0 0 0 0 0 0 0 0 0
0 0 0 0 0 0 0 0 0 0 0 0 0 0 0 0 1 1 2 3 3 3 4 5 7 8 8 9 12 13 14 16 12 4 0 0 0 0 0 0 0 0 0
0 0 0 0 0 0 0 0 0 0 0 0 0 0 0 0 0 0 1 2 4 5 5 5 4 5 5 7 9 10 13 16 12 6 3 2 1 1 1 0 0 0 0
0 0 0 0 0 0 0 0 0 0 0 0 0 0 0 0 0 0 0 2 4 6 6 5 3 2 4 5 7 8 10 13 13 12 11 8 6 6 5 3 1 0 0
0 0 0 0 0 0 0 0 0 0 0 0 0 0 0 0 0 0 0 1 2 4 5 5 3 2 2 3 4 5 5 7 11 16 18 18 17 15 12 6 1 0 0
0 0 0 0 0 0 0 0 0 0 0 0 0 0 0 0 0 0 0 0 0 1 2 3 3 2 1 1 2 3 4 6 10 16 20 22 23 21 15 7 2 0 0
0 0 0 0 0 0 0 0 0 0 0 0 0 0 0 0 0 0 0 0 0 0 0 1 1 1 1 1 1 2 3 6 10 14 17 18 19 18 13 7 2 0 0
0 0 0 0 0 0 0 0 0 0 0 0 0 0 0 0 0 0 0 0 0 0 0 0 0 0 0 0 0 1 2 4 6 9 12 13 13 13 10 6 2 0 0
0 0 0 0 0 0 0 0 0 0 0 0 0 0 0 0 0 0 0 0 0 0 0 0 0 0 0 0 0 1 1 2 2 5 10 11 10 11 10 6 2 1 0
Wind_Speed
4 4 4 4 5 5 6 6 6 6 8 9 9 10 10 10 10 9 5 11 13 15 16 17 17 17 18 18 18 17 17 17 15 14 13 13 13 13 13 13 12 11 11
4 4 5 4 4 4 4 4 6 6 6 6 8 10 10 10 10 10 9 9 14 16 17 18 18 18 19 19 19 19 18 18 16 15 14 14 13 13 13 13 13 12 11
3 4 4 4 4 4 5 5 6 6 7 8 9 10 9 10 10 10 10 8 9 15 18 19 19 19 20 21 21 20 19 18 17 16 16 15 14 14 14 13 13 13 12
3 4 4 4 4 5 5 5 5 6 7 7 7 8 8 8 11 11 10 10 9 10 15 20 20 19 20 21 22 22 21 19 18 18 17 16 15 15 15 14 14 13 13
3 4 4 3 4 4 4 6 5 6 7 7 8 8 9 9 10 11 12 12 12 11 11 14 19 19 20 21 22 22 22 21 20 20 19 19 18 16 16 15 15 14 14
2 3 3 2 4 4 4 4 5 5 6 6 8 8 8 9 9 10 12 11 11 13 14 13 12 15 20 19 20 21 23 22 22 21 21 20 20 18 17 17 16 15 15
2 3 4 2 4 4 4 5 5 6 6 5 6 7 8 10 10 10 10 10 12 13 13 13 11 10 11 20 20 21 22 23 22 22 21 21 21 19 18 18 17 17 16
4 4 3 5 4 4 5 5 5 6 5 4 5 6 6 7 8 9 8 9 11 10 12 14 12 12 11 10 15 22 22 22 23 23 22 21 20 20 20 20 19 18 17
4 4 5 5 5 6 5 5 6 7 6 5 5 5 5 5 4 5 7 7 8 8 10 10 13 13 14 11 12 19 22 21 22 23 23 22 21 20 20 20 20 19 19
5 5 6 6 6 6 5 7 5 6 7 6 5 5 6 5 5 5 5 6 7 8 9 8 10 12 13 12 11 13 19 20 21 22 23 23 22 21 21 22 22 21 20
5 6 6 6 6 7 7 7 6 7 6 7 6 5 6 6 7 7 6 5 6 6 7 8 8 9 11 11 10 15 18 20 20 22 23 23 23 23 23 23 23 23 22
5 6 7 7 7 7 7 7 7 8 7 7 7 6 6 6 6 6 7 6 6 6 6 6 7 8 8 10 13 14 17 19 19 20 22 22 22 23 23 23 24 23 23
6 5 7 7 7 7 8 8 8 9 8 8 8 7 7 7 6 6 7 7 6 5 5 6 6 6 7 7 8 11 14 16 18 18 19 20 21 21 22 22 23 23 23
7 7 8 8 8 9 9 8 9 9 8 8 10 9 7 8 6 7 7 7 7 6 6 6 4 5 4 6 7 10 12 15 16 17 18 18 19 20 20 20 21 21 20
7 8 8 9 9 9 10 9 9 9 9 9 10 10 9 8 7 7 7 7 7 7 6 5 4 3 3 4 4 8 9 12 16 16 17 17 18 18 19 19 19 18 18
8 9 10 10 10 10 10 10 10 9 9 9 9 10 9 9 7 7 7 7 8 8 7 4 3 3 3 4 4 6 7 9 13 15 16 16 16 17 17 18 18 18 18
9 9 10 10 10 10 10 9 11 10 11 11 10 11 11 11 9 8 7 7 7 7 8 6 4 3 4 5 4 5 6 7 8 14 15 16 16 16 17 17 17 17 17
9 9 10 10 10 10 9 10 11 11 11 12 12 11 11 10 11 10 8 8 8 7 7 8 5 4 5 5 5 6 6 7 7 11 14 14 15 15 16 16 16 16 16
9 9 9 10 10 10 10 10 11 11 12 12 12 12 12 11 11 10 10 9 8 8 7 7 7 5 4 4 4 6 6 4 6 7 11 12 13 14 15 15 15 15 14
9 9 9 10 10 10 10 11 10 11 11 12 12 12 12 12 12 11 10 11 10 9 8 8 7 6 5 4 4 4 5 5 5 6 6 7 10 12 13 14 14 15 14
9 9 9 10 10 9 9 9 10 11 11 12 12 12 13 12 10 9 9 10 10 9 8 8 8 6 6 5 5 4 4 4 5 5 5 7 8 8 10 12 13 14 14
9 9 9 10 10 9 3 4 9 12 12 12 12 12 12 12 12 13 13 13 12 11 10 9 8 8 7 6 5 5 4 4 5 6 6 6 7 7 8 9 12 14 14
9 9 9 9 10 8 4 6 8 11 13 12 12 11 11 10 10 12 13 16 16 16 14 12 11 9 7 7 6 7 6 6 5 4 6 6 6 6 5 6 13 13 13
9 9 9 10 10 8 4 7 8 12 12 12 12 12 12 12 11 10 11 12 13 14 15 14 12 10 9 6 7 7 6 6 5 4 5 5 5 5 5 6 11 11 11
10 9 9 9 9 8 5 6 8 10 10 11 11 11 12 12 9 7 11 13 13 12 11 12 11 9 6 5 5 6 6 6 5 5 6 4 4 4 4 5 7 10 10
9 10 9 9 9 9 5 5 7 9 9 9 8 9 10 11 8 7 11 12 13 12 11 11 12 11 11 11 11 10 9 7 6 5 6 6 6 6 5 4 5 7 8
Wind_Direction
241 242 245 245 244 243 242 243 246 242 239 240 239 236 238 236 240 237 222 186 199 214 220 220 217 213 210 206 204 202 200 200 197 194 194 192 187 184 182 180 177 173 171
252 249 242 243 249 252 259 260 258 252 248 241 239 239 241 242 240 241 243 215 206 215 221 222 220 217 214 210 207 205 203 203 199 197 197 196 193 189 188 187 183 180 178
265 260 255 251 253 258 256 255 258 257 250 245 242 240 239 240 239 238 241 244 227 216 220 222 221 219 216 213 210 207 205 204 201 198 199 199 195 192 192 191 189 185 184
263 255 256 255 256 254 255 258 257 261 259 258 252 248 245 242 242 240 238 234 238 235 218 218 220 219 218 216 214 210 206 204 202 200 200 201 199 196 195 194 193 190 188
288 268 269 273 257 253 256 265 259 262 264 262 258 248 244 242 242 242 239 236 232 235 236 215 214 218 219 218 216 213 209 205 203 202 202 203 202 199 197 196 196 193 192
305 294 270 278 274 264 259 260 268 263 270 270 270 265 252 246 240 238 238 236 231 230 231 232 216 216 216 216 214 214 212 208 205 204 205 206 206 203 200 198 197 196 196
303 288 298 290 278 272 275 272 268 261 259 264 266 263 252 243 240 238 236 237 233 231 231 229 227 226 213 211 210 211 212 211 208 206 207 207 208 206 202 201 199 198 198
282 276 295 289 285 285 269 273 267 274 271 256 266 275 267 246 227 234 233 233 237 233 232 228 225 224 228 213 205 206 210 210 210 208 207 209 210 207 204 203 202 201 200
273 287 289 289 294 280 280 281 274 266 272 265 252 267 274 272 286 239 235 238 237 234 231 228 225 224 223 221 211 201 204 206 209 210 209 209 209 207 205 204 204 203 203
277 275 277 278 280 283 286 274 269 272 266 264 245 242 261 289 280 271 240 232 231 235 239 232 226 221 219 217 215 205 199 203 207 209 210 210 209 208 206 205 206 206 206
271 273 274 276 274 275 283 288 287 273 268 269 268 255 249 247 249 262 267 260 247 240 235 235 232 224 219 217 214 210 196 200 205 208 209 209 208 209 208 207 209 209 209
273 272 277 280 275 278 277 274 276 266 267 273 274 270 262 258 254 255 261 261 261 254 247 247 239 229 220 216 218 206 193 197 202 206 207 207 206 209 210 209 210 212 212
286 287 289 286 284 282 279 277 269 272 268 264 261 263 266 264 265 265 268 270 268 265 250 243 240 232 227 220 215 198 195 195 198 202 205 206 206 207 208 208 210 212 213
301 307 292 284 282 280 278 275 273 266 262 261 261 262 265 262 260 259 262 269 267 259 249 245 244 237 237 230 212 204 203 195 197 200 203 204 204 204 204 205 207 209 210
296 297 293 288 285 282 279 277 270 272 268 262 259 252 249 256 254 254 256 258 264 264 255 244 239 234 242 237 215 218 215 195 198 200 201 202 202 200 200 201 203 205 206
297 293 290 289 287 283 278 272 271 265 264 262 261 264 261 256 252 252 252 254 254 262 265 253 244 248 259 255 220 226 221 191 198 200 201 201 202 201 199 200 202 203 204
295 290 290 289 286 282 279 275 271 273 267 264 261 256 252 257 256 251 247 247 249 250 258 261 252 246 247 263 250 238 225 216 203 197 199 198 199 199 198 198 199 200 201
291 289 289 286 282 280 278 274 273 273 270 266 264 262 257 252 246 250 249 247 247 248 253 258 256 248 240 245 243 238 232 221 217 188 192 194 194 194 194 194 196 197 198
293 292 289 284 282 281 278 274 273 273 271 268 266 262 259 255 252 248 246 245 244 241 240 251 252 249 247 245 243 235 229 227 222 183 183 189 192 191 189 190 191 192 191
294 292 290 287 284 280 278 276 275 274 273 271 267 263 260 256 252 250 247 244 243 244 240 242 246 242 237 231 235 235 221 207 208 193 182 178 178 185 187 186 187 187 187
294 294 293 289 286 279 276 287 289 282 277 273 269 263 258 258 265 263 263 254 245 238 237 234 235 235 231 219 224 230 229 213 206 195 179 178 175 184 184 185 187 184 183
300 297 292 291 287 284 331 317 288 285 280 275 271 267 262 248 238 234 248 260 265 256 247 242 236 232 230 228 227 235 226 215 213 193 190 188 183 185 184 186 175 176 179
301 297 294 290 287 287 271 265 265 276 275 272 270 268 264 259 242 240 230 230 240 246 250 255 252 246 235 226 228 233 227 222 230 194 187 188 177 180 178 150 149 164 172
302 298 295 292 289 287 255 258 262 265 268 268 264 262 261 264 258 254 250 242 238 232 228 231 242 247 248 239 227 237 246 234 232 211 194 192 178 173 162 146 146 157 164
302 299 292 291 289 288 258 252 266 278 270 268 265 260 258 259 250 237 252 252 249 243 230 227 235 243 248 235 228 231 226 226 219 203 194 191 170 154 156 156 148 155 160
298 298 297 293 290 290 282 255 264 278 280 278 270 263 247 248 259 232 244 248 247 245 241 217 215 220 225 217 208 224 227 223 223 207 191 187 174 163 161 159 160 163 161